EW4529 Weather Reports


time (UTC)temp
C
wind
direction
speed
KPH
gust
KPH
rain 1hr
cm
rain 24hr
cm
rain mn
cm
humidity
%
barometer
mb
20260510190316 25 127 1.6 8.0 0.00 0.00 0.00 49 1012.9
20260510185318 25 340 1.6 8.0 0.00 0.00 0.00 48 1013.0
20260510184320 24 233 0.0 6.4 0.00 0.00 0.00 50 1013.1
20260510183345 24 20 3.2 11.3 0.00 0.00 0.00 49 1013.1
20260510182323 25 123 1.6 12.9 0.00 0.00 0.00 49 1013.1
20260510181317 25 16 3.2 9.7 0.00 0.00 0.00 48 1013.1
20260510180323 25 165 1.6 6.4 0.00 0.00 0.00 50 1013.1
20260510175324 26 23 1.6 6.4 0.00 0.00 0.00 49 1013.0
20260510174319 26 353 0.0 8.0 0.00 0.00 0.00 46 1013.0
20260510173342 27 121 0.0 8.0 0.00 0.00 0.00 44 1013.0
20260510172343 27 6 1.6 6.4 0.00 0.00 0.00 42 1013.0
20260510171321 27 31 1.6 4.8 0.00 0.00 0.00 43 1013.0
20260510170316 26 183 0.0 6.4 0.00 0.00 0.00 46 1013.0
20260510165320 26 288 1.6 9.7 0.00 0.00 0.00 44 1013.0
20260510164320 26 274 1.6 6.4 0.00 0.00 0.00 44 1013.1
20260510163316 26 131 1.6 11.3 0.00 0.00 0.00 47 1013.1
20260510162338 26 155 0.0 8.0 0.00 0.00 0.00 49 1013.2
20260510161320 26 17 3.2 9.7 0.00 0.00 0.00 47 1013.0
20260510160317 26 21 1.6 6.4 0.00 0.00 0.00 49 1013.0
20260510155319 26 16 1.6 8.0 0.00 0.00 0.00 48 1013.1
20260510154346 26 191 1.6 9.7 0.00 0.00 0.00 49 1013.2
20260510153322 26 336 0.0 11.3 0.00 0.00 0.00 47 1013.2
20260510152343 25 233 3.2 6.4 0.00 0.00 0.00 49 1013.2
20260510151345 25 38 1.6 6.4 0.00 0.00 0.00 50 1013.2
20260510150322 24 117 1.6 6.4 0.00 0.00 0.00 54 1013.3
20260510145337 22 134 0.0 4.8 0.00 0.00 0.00 60 1013.4
20260510144314 22 279 1.6 6.4 0.00 0.00 0.00 64 1013.5
20260510143325 21 13 0.0 0.0 0.00 0.00 0.00 65 1013.4
20260510142323 21 340 0.0 8.0 0.00 0.00 0.00 68 1013.4
20260510141319 20 138 0.0 1.6 0.00 0.00 0.00 71 1013.5
20260510140322 20 239 0.0 4.8 0.00 0.00 0.00 74 1013.4
20260510135313 19 62 0.0 4.8 0.00 0.00 0.00 75 1013.4
20260510134314 18 3 0.0 4.8 0.00 0.00 0.00 79 1013.4
20260510133331 17 265 0.0 3.2 0.00 0.00 0.00 81 1013.3
20260510132328 17 141 0.0 3.2 0.00 0.00 0.00 83 1013.2
20260510131324 16 124 0.0 3.2 0.00 0.00 0.00 87 1013.4
20260510130315 15 15 1.6 4.8 0.00 0.00 0.00 90 1013.5
20260510125311 14 233 0.0 1.6 0.00 0.00 0.00 94 1013.6
20260510124328 13 108 0.0 1.6 0.00 0.00 0.00 96 1013.5
20260510123327 13 145 0.0 0.0 0.00 0.00 0.00 97 1013.4
20260510122325 13 146 0.0 0.0 0.00 0.00 0.00 97 1013.2
20260510121315 12 146 0.0 1.6 0.00 0.00 0.00 97 1013.0
20260510120338 12 144 0.0 4.8 0.00 0.00 0.00 97 1013.0
20260510115316 11 129 0.0 3.2 0.00 0.00 0.00 97 1013.0
20260510114319 11 8 0.0 1.6 0.00 0.00 0.00 97 1013.0
20260510113311 11 9 0.0 1.6 0.00 0.00 0.00 97 1012.8
20260510112340 11 99 0.0 1.6 0.00 0.00 0.00 97 1012.5
20260510111337 11 4 0.0 1.6 0.00 0.00 0.00 97 1012.8
20260510110312 11 352 0.0 1.6 0.00 0.00 0.00 97 1012.7
20260510105323 11 20 0.0 0.0 0.00 0.00 0.00 97 1012.4
20260510104323 10 66 0.0 0.0 0.00 0.00 0.00 97 1012.2
20260510103320 10 79 0.0 0.0 0.00 0.00 0.00 97 1012.1
20260510102307 10 100 0.0 0.0 0.00 0.00 0.00 97 1012.2
20260510101328 10 100 0.0 1.6 0.00 0.00 0.00 97 1012.1
20260510100323 10 89 0.0 0.0 0.00 0.00 0.00 97 1012.1
20260510095343 10 93 0.0 0.0 0.00 0.00 0.00 97 1012.0
20260510094325 10 93 0.0 1.6 0.00 0.00 0.00 97 1011.8
20260510093350 10 350 0.0 3.2 0.00 0.00 0.00 97 1011.9
20260510092328 10 13 0.0 3.2 0.00 0.00 0.00 97 1011.8
20260510091352 10 343 0.0 3.2 0.00 0.00 0.00 97 1011.6
20260510090329 10 35 0.0 1.6 0.00 0.00 0.00 97 1011.8
20260510085309 10 352 1.6 8.0 0.00 0.00 0.00 97 1012.0
20260510084307 10 30 0.0 3.2 0.00 0.00 0.00 97 1011.9
20260510083323 10 22 0.0 3.2 0.00 0.00 0.00 97 1011.7
20260510082324 10 150 0.0 1.6 0.00 0.00 0.00 97 1011.1
20260510081346 10 9 0.0 0.0 0.00 0.00 0.00 97 1011.2
20260510080329 10 10 0.0 1.6 0.00 0.00 0.00 97 1011.3
20260510075330 10 8 0.0 1.6 0.00 0.00 0.00 97 1011.2
20260510074329 10 349 0.0 1.6 0.00 0.00 0.00 97 1011.2
20260510073328 9 13 0.0 1.6 0.00 0.00 0.00 97 1011.1
20260510072312 9 122 0.0 0.0 0.00 0.00 0.00 97 1011.0
20260510071335 9 123 0.0 0.0 0.00 0.00 0.00 97 1010.9
20260510070311 9 122 0.0 0.0 0.00 0.00 0.00 97 1010.7
20260510065341 8 122 0.0 0.0 0.00 0.00 0.00 97 1010.6
20260510064312 9 123 0.0 0.0 0.00 0.00 0.00 97 1010.5
20260510063313 9 122 0.0 0.0 0.00 0.00 0.00 97 1010.6
20260510062314 9 122 0.0 0.0 0.00 0.00 0.00 97 1010.7
20260510061308 9 122 0.0 0.0 0.00 0.00 0.00 97 1010.6
20260510060310 9 122 0.0 0.0 0.00 0.00 0.00 96 1010.7
20260510055310 9 122 0.0 0.0 0.00 0.00 0.00 97 1010.8
20260510054332 9 122 0.0 0.0 0.00 0.00 0.00 96 1010.9
20260510053326 9 122 0.0 0.0 0.00 0.00 0.00 96 1010.9
20260510052308 10 122 0.0 0.0 0.00 0.00 0.00 96 1011.0
20260510051312 9 123 0.0 0.0 0.00 0.00 0.00 96 1011.1
20260510050325 9 122 0.0 0.0 0.00 0.00 0.00 96 1011.1
20260510045323 10 122 0.0 0.0 0.00 0.00 0.00 96 1011.2
20260510044327 10 123 0.0 0.0 0.00 0.00 0.00 96 1011.2
20260510043349 10 122 0.0 0.0 0.00 0.00 0.00 96 1011.3
20260510042321 10 122 0.0 0.0 0.00 0.00 0.00 96 1011.4
20260510041323 10 122 0.0 0.0 0.00 0.00 0.00 96 1011.4
20260510040319 10 122 0.0 0.0 0.00 0.00 0.00 96 1011.4
20260510035318 10 122 0.0 0.0 0.00 0.00 0.00 96 1011.4
20260510034320 10 122 0.0 0.0 0.00 0.00 0.00 95 1011.2
20260510033323 10 122 0.0 0.0 0.00 0.00 0.00 95 1011.2
20260510032316 10 123 0.0 0.0 0.00 0.00 0.00 95 1011.0
20260510031316 11 123 0.0 0.0 0.00 0.00 0.00 95 1010.9
20260510030341 11 122 0.0 0.0 0.00 0.00 0.00 95 1010.8
20260510025318 11 123 0.0 0.0 0.00 0.00 0.00 95 1010.8
20260510024310 11 123 0.0 0.0 0.00 0.00 0.00 94 1010.8
20260510023311 11 122 0.0 0.0 0.00 0.00 0.00 94 1010.9
20260510022313 11 123 0.0 0.0 0.00 0.00 0.00 94 1010.8
20260510021319 11 122 0.0 0.0 0.00 0.00 0.00 94 1010.8
20260510020314 11 122 0.0 0.0 0.00 0.00 0.00 93 1010.7
20260510015317 11 122 0.0 0.0 0.00 0.00 0.00 93 1010.7
20260510014309 11 122 0.0 0.0 0.00 0.00 0.00 92 1010.6
20260510013309 11 122 0.0 0.0 0.00 0.00 0.00 92 1010.7
20260510012330 12 122 0.0 0.0 0.00 0.00 0.00 91 1010.6
20260510011309 12 122 0.0 0.0 0.00 0.00 0.00 91 1010.6
20260510010331 12 123 0.0 0.0 0.00 0.00 0.00 91 1010.5
20260510005307 12 123 0.0 1.6 0.00 0.00 0.00 91 1010.5
20260510004331 12 108 0.0 0.0 0.00 0.00 0.00 90 1010.3
20260510003325 12 108 0.0 0.0 0.00 0.00 0.00 89 1010.3
20260510002324 13 108 0.0 0.0 0.00 0.00 0.00 89 1010.3
20260510001326 13 108 0.0 0.0 0.00 0.00 0.00 88 1010.3
20260510000319 13 108 0.0 0.0 0.00 0.00 0.00 86 1010.3
20260509235320 13 108 0.0 1.6 0.00 0.00 0.00 85 1010.2
20260509234323 14 174 0.0 0.0 0.00 0.00 0.00 83 1010.3
20260509233325 14 174 0.0 0.0 0.00 0.00 0.00 81 1010.2
20260509232327 15 174 0.0 0.0 0.00 0.00 0.00 79 1010.1
20260509231329 15 174 0.0 0.0 0.00 0.00 0.00 79 1010.0
20260509230308 15 172 0.0 0.0 0.00 0.00 0.00 78 1009.9
20260509225333 15 172 0.0 1.6 0.00 0.00 0.00 77 1010.0
20260509224308 15 148 0.0 1.6 0.00 0.00 0.00 78 1010.0
20260509223334 15 148 0.0 1.6 0.00 0.00 0.00 79 1010.1
20260509222313 15 143 0.0 4.8 0.00 0.00 0.00 79 1010.2
20260509221336 15 158 0.0 3.2 0.00 0.00 0.00 80 1010.1
20260509220341 15 11 0.0 0.0 0.00 0.00 0.00 80 1010.3
20260509215340 15 51 0.0 3.2 0.00 0.00 0.00 81 1010.2
20260509214322 15 130 0.0 3.2 0.00 0.00 0.00 80 1010.3
20260509213322 15 339 0.0 1.6 0.00 0.00 0.00 81 1010.4
20260509212324 15 351 0.0 1.6 0.00 0.00 0.00 80 1010.5
20260509211308 15 4 0.0 3.2 0.00 0.00 0.00 81 1010.5
20260509210310 15 324 0.0 1.6 0.00 0.00 0.00 80 1010.3
20260509205313 15 65 0.0 3.2 0.00 0.00 0.00 79 1010.4
20260509204315 15 12 0.0 4.8 0.00 0.00 0.00 78 1010.3
20260509203313 16 191 1.6 9.7 0.00 0.00 0.00 76 1010.2
20260509202311 16 254 0.0 6.4 0.00 0.00 0.00 79 1010.2
20260509201308 15 316 1.6 9.7 0.00 0.00 0.00 81 1010.1
20260509200316 15 6 1.6 8.0 0.00 0.00 0.00 81 1010.1
20260509195313 15 6 1.6 11.3 0.00 0.00 0.00 82 1010.4
20260509194309 15 349 3.2 9.7 0.00 0.00 0.00 79 1010.4
20260509193321 15 316 3.2 6.4 0.00 0.00 0.00 82 1010.6
20260509192317 15 353 0.0 6.4 0.00 0.00 0.00 84 1010.8
20260509191314 15 144 3.2 12.9 0.00 0.00 0.00 84 1011.0